Flag for Germany Weather past 2 weeks in Starnberg, Bavaria, Germany

Now
66 °F

Sunny.


Feels Like: 66 °F
Forecast: 51 / 67 °F
Wind: 20 mph from West

Location: Oberpfaffenhofen

Current Time: Jul 28, 2015 at 10:49:21 AM

Latest Report: Jul 28, 2015 at 10:20 AM


Visibility: 10 mi

Pressure: 29.89 "Hg (27.90 "Hg at 590m altitude)

Humidity: 52%

Dew point: 48 °F

Location of StarnbergLocation

Historic Weather in Starnberg — Graph

°F

Starnberg temperature yesterday

Maximum temperature yesterday: 75 °F (at 3:50 PM)
Minimum temperature yesterday: 57 °F (at 7:20 AM)
Average temperature yesterday: 67 °F

Past Weeks' High & Low Weather Summary

 TemperatureHumidityPressure
High93 °F (Jul 22, 1:50 PM)100% (Jul 20, 6:50 AM)30.18 "Hg (Jul 20, 6:50 AM)
Low57 °F (Jul 27, 7:20 AM)18% (Jul 17, 3:20 PM)29.77 "Hg (Jul 24, 6:50 PM)
Average76 °F57%30.02 "Hg
* Reported Jul 13 9:20 AM — Jul 28 9:50 AM, Starnberg, Weather by CustomWeather, © 2015

Note: Actual official high and low records may vary slightly from our data, if they occured in-between our weather recording intervals... More about our weather records

Advertising

Starnberg weather history for previous 24 hours

 ConditionsComfort  
Time TempWeatherWind HumidityBarometerVisibility
9:50 AM
Tue, Jul 28
66 °FSunny.21 mph52%29.89 "Hg10 mi
9:20 AM66 °FSunny.15 mph52%29.86 "Hg10 mi
8:50 AM64 °FSunny.18 mph60%29.86 "Hg10 mi
8:20 AM64 °FSunny.16 mph60%29.86 "Hg10 mi
7:50 AM64 °FSunny.13 mph60%29.86 "Hg10 mi
7:20 AM63 °FSunny.12 mph64%29.86 "Hg10 mi
6:50 AM63 °FSunny.13 mph64%29.86 "Hg10 mi
10:20 PM
Mon, Jul 27
63 °FClear.2 mph59%29.89 "Hg10 mi
9:50 PM63 °FSunny.5 mph59%29.86 "Hg10 mi
9:20 PM64 °FSunny.5 mph56%29.86 "Hg10 mi
8:50 PM64 °FSunny.7 mph52%29.86 "Hg10 mi
6:50 PM72 °FSunny.18 mph41%29.83 "Hg10 mi
6:20 PM70 °FSunny.22 mph43%29.80 "Hg10 mi
5:50 PM72 °FScattered clouds.23 mph44%29.80 "HgN/A
5:20 PM73 °FScattered clouds.18 mph41%29.80 "HgN/A
4:50 PM70 °FScattered clouds.10 mph60%29.80 "HgN/A
4:20 PM70 °FScattered clouds.15 mph57%29.80 "HgN/A
3:50 PM75 °FScattered clouds.18 mph41%29.77 "HgN/A
3:20 PM73 °FScattered clouds.23 mph41%29.77 "HgN/A
2:50 PM73 °FScattered clouds.24 mph44%29.77 "HgN/A
2:20 PM72 °FScattered clouds.22 mph47%29.77 "HgN/A
1:50 PM73 °FScattered clouds.23 mph44%29.77 "HgN/A
1:20 PM72 °FScattered clouds.23 mph50%29.80 "HgN/A
12:50 PM70 °FScattered clouds.26 mph50%29.80 "HgN/A
12:20 PM70 °FScattered clouds.25 mph53%29.80 "HgN/A
11:50 AM70 °FScattered clouds.22 mph53%29.80 "HgN/A
11:20 AM68 °FSunny.18 mph60%29.80 "Hg10 mi
10:50 AM66 °FSunny.21 mph64%29.80 "Hg10 mi
10:20 AM64 °FSunny.20 mph73%29.80 "Hg10 mi
Weather by CustomWeather, © 2015

See weather overviewHow to use our weather pages